TimeCAT,TemperatureF,Dew PointF,Humidity,Sea Level PressureIn,VisibilityMPH,Wind Direction,Wind SpeedMPH,Gust SpeedMPH,PrecipitationIn,Events,Conditions,WindDirDegrees,DateUTC
12:00 AM,75.2,60.8,61,30.04,-9999.0,East,10.4,-,N/A,,Clear,80,2013-02-16 22:00:00
1:00 AM,71.6,60.8,69,30.06,-9999.0,ENE,8.1,-,N/A,,Clear,70,2013-02-16 23:00:00
4:00 AM,69.8,60.8,73,30.06,-9999.0,ENE,6.9,-,N/A,,Clear,70,2013-02-17 02:00:00
5:00 AM,68.0,60.8,78,30.06,-9999.0,ENE,8.1,-,N/A,,Clear,60,2013-02-17 03:00:00
6:00 AM,66.2,60.8,83,30.09,-9999.0,ENE,8.1,-,N/A,,Clear,60,2013-02-17 04:00:00
8:00 AM,71.6,60.8,69,30.12,-9999.0,NE,11.5,-,N/A,,Clear,50,2013-02-17 06:00:00
9:00 AM,75.2,60.8,61,30.12,6.2,NE,12.7,-,N/A,,Partly Cloudy,40,2013-02-17 07:00:00
10:00 AM,77.0,60.8,57,30.12,6.2,NE,11.5,-,N/A,,Scattered Clouds,50,2013-02-17 08:00:00
11:00 AM,80.6,60.8,51,30.09,6.2,NE,8.1,-,N/A,,Partly Cloudy,40,2013-02-17 09:00:00
12:00 PM,82.4,59.0,45,30.06,6.2,NE,9.2,-,N/A,,Partly Cloudy,40,2013-02-17 10:00:00
1:00 PM,84.2,57.2,40,30.04,6.2,NNE,5.8,-,N/A,,Partly Cloudy,20,2013-02-17 11:00:00
2:00 PM,86.0,55.4,35,30.01,6.2,NNE,5.8,-,N/A,,Partly Cloudy,20,2013-02-17 12:00:00
3:00 PM,87.8,55.4,33,29.98,6.2,ENE,6.9,-,N/A,,Scattered Clouds,70,2013-02-17 13:00:00
4:00 PM,89.6,53.6,29,29.95,6.2,NE,8.1,-,N/A,,Partly Cloudy,40,2013-02-17 14:00:00
5:00 PM,89.6,51.8,27,29.92,6.2,East,6.9,-,N/A,,Partly Cloudy,90,2013-02-17 15:00:00
6:00 PM,87.8,53.6,31,29.92,6.2,ENE,4.6,-,N/A,,Partly Cloudy,60,2013-02-17 16:00:00
7:00 PM,84.2,55.4,37,29.92,6.2,NE,4.6,-,N/A,,Partly Cloudy,50,2013-02-17 17:00:00
8:00 PM,82.4,55.4,39,29.92,-9999.0,East,3.5,-,N/A,,Clear,90,2013-02-17 18:00:00
9:00 PM,80.6,57.2,45,29.95,-9999.0,East,4.6,-,N/A,,Clear,80,2013-02-17 19:00:00
10:00 PM,77.0,57.2,50,29.95,-9999.0,East,4.6,-,N/A,,Clear,80,2013-02-17 20:00:00